KITSAT 1 - Orbit

View from above orbital plane
View from above orbital plane
View from above satellite
View from above satellite

Ground track
Ground track

The orbit data is extracted from the following two-line orbital elements,

1 22077U 92052B   13143.16968235 -.00000041  00000-0  82024-4 0  5046
2 22077 066.0840 199.1487 0012712 309.4432 085.5967 12.86479626976239
Epoch (UTC): 23 May 2013 04:04:20
Eccentricity: 0.0012712
inclination: 66.0840°
perigee height: 1306 km
apogee height: 1325 km
right ascension of ascending node: 199.1487°
argument of perigee: 309.4432°
revolutions per day: 12.86479626
mean anomaly at epoch: 85.5967°
orbit number at epoch: 97623

The dashed part of the orbit path shows where the satellite is in the earth's shadow,  

Developed and maintained by Chris Peat, Heavens-Above GmbH. Please read the updated FAQ before sending e-mail. Imprint. DLR